Погода в Лонгйире

Норвегия     78°12′52″N   15°37′31″E
темп.,
°C
ветер,
м/с
пор.,
м/с
влажн.,
%
обл.,
%
осадки,
мм/ч
давл.,
гПа
погр.,
м
1 марта, пн
пн101:00−16вюв33830 0.0 994153
04:00−16в22820 0.0 995142
07:00−16в12840 0.0 996119
10:00−16в11830 0.0 998113
13:00−16зсз00810 0.0 1000118
16:00−16сз01840 0.0 1001111
19:00−16юз01810 0.0 1001100
22:00−16юз11780 0.0 1002113
2 марта, вт
вт201:00−16зюз01770 0.0 1003117
04:00−16всв11810 0.0 1004120
07:00−16в12820 0.0 1005118
10:00−16в11770 0.0 1008127
13:00−15в22740 0.0 1010134
16:00−17вюв32820 0.0 1012113
19:00−18вюв33900 0.0 1012141
22:00−18в33870 0.0 1014151
3 марта, ср
ср301:00−19всв22840 0.0 1015156
04:00−19всв12820 0.0 1015150
07:00−19св22840 0.0 1016154
10:00−17св23790 0.0 1017171
13:00−17ссв33780 0.0 1018170
16:00−17ссв34800 0.0 1019180
19:00−17св23800 0.0 1020172
22:00−18всв22740 0.0 1021203
4 марта, чт
чт401:00−19всв22750 0.0 1022183
04:00−19в22740 0.0 1022175
07:00−19в22750 0.0 1022163
10:00−19вюв22770 0.0 1023139
13:00−19юв22771 0.0 1023153
16:00−20ююв22750 0.0 1022113
19:00−20ююв22740 0.0 102276
22:00−20ююв22730 0.0 102189
5 марта, пт
пт501:00−20ююв33734 0.0 102072
04:00−17юв327481 0.0 1018116
07:00−16юв338590 0.1 101497
10:00−16юв4495100 0.4 1012132
13:00−16юв5590100 0.6 1009154
16:00−16юв4596100 0.3 1006163
19:00−16юв1296100 0.8 100488
22:00−15вюв2294100 0.3 100399